Orbital Elements at Epoch 2459000.5 (2020-May-31.0) TDB
Reference: JPL 20 (heliocentric ecliptic J2000)
Element | Value | Uncertainty (1-sigma) | Units |
e | .2046751451441941 | 3.8278e-08 | |
a | 2.428564749189328 | 1.1125e-08 | au |
q | 1.931497906656929 | 9.0783e-08 | au |
i | .4767913374397749 | 4.2532e-06 | deg |
node | 191.0904996392228 | 0.00044234 | deg |
peri | 146.6798753777048 | 0.00044247 | deg |
M | 212.7959942411112 | 1.4259e-05 | deg |
tp | 2459565.749367139559 (2021-Dec-17.24936714) | 5.7671e-05 | TDB |
period | 1382.365725179687 3.78 | 9.4985e-06 2.601e-08 | d yr |
n | .2604231235212413 | 1.7894e-09 | deg/d |
Q | 2.925631591721727 | 1.3402e-08 | au |
|
| | Orbit Determination Parameters
Additional Information
|